Change the Weather History Date:

Sunday, January 20, 2013

  Actual Average Record
Temperature  
Mean Temperature -16 °F -  
Max Temperature -8 °F -4 °F 34 °F (2008)
Min Temperature -24 °F -15 °F -29 °F (2004)
Degree Days  
Heating Degree Days 81    
Moisture  
Dew Point -17 °F    
Average Humidity 81    
Maximum Humidity 83    
Minimum Humidity 74    
Precipitation  
Precipitation 0.00 in - - ()
Sea Level Pressure  
Sea Level Pressure 30.63 in    
Wind  
Wind Speed 16 mph (East)    
Max Wind Speed 33 mph    
Max Gust Speed -    
Visibility 8 miles    
Events      
Averages and records for this station are not official NWS values.
T = Trace of Precipitation, MM = Missing Value Source: NWS Daily Summary

Daily Weather History Graph

Daily Weather History Graph

Search for Another Location

Airport or City:

Trip Planner

Search our weather history database for the weather conditions in past years. The results will help you decide how hot, cold, wet, or windy it might be!

Date:

Astronomy

Jan. 20, 2013 Rise Set
Actual Time 11:39 AM AKST 1:52 PM AKST
Civil Twilight 9:36 AM AKST 3:55 PM AKST
Nautical Twilight 8:08 AM AKST 5:23 PM AKST
Astronomical Twilight 6:54 AM AKST 6:37 PM AKST
Moon 9:26 AM AKST (1/20) 5:46 AM AKST (1/20)
Length of Visible Light 6h 19m
Length of Day
2h 13m
Waxing Gibbous, 67% of the Moon is Illuminated
Jan 20
Waxing Gibbous
Jan 26
Full
Feb 3
Last Quarter
Feb 9
New
Feb 17
First Quarter

Hourly Weather History & Observations

Time (AKST) Temp. Windchill Dew Point Humidity Pressure Visibility Wind Dir Wind Speed Gust Speed Precip Events Conditions
12:01 AM -24.0 °F -37.9 °F -29.9 °F 74% 30.78 in 10.0 mi SE 4.6 mph - N/A   Clear
1:01 AM -24.0 °F -43.4 °F -29.0 °F 77% 30.77 in 10.0 mi East 8.1 mph - N/A   Clear
2:01 AM -20.9 °F -39.7 °F -26.0 °F 77% 30.76 in 10.0 mi East 8.1 mph - N/A   Clear
3:01 AM -18.0 °F -39.7 °F -22.0 °F 82% 30.74 in 10.0 mi ENE 11.5 mph - N/A   Clear
4:01 AM -15.0 °F -36.8 °F -18.9 °F 82% 30.71 in 10.0 mi ENE 12.7 mph - N/A   Clear
5:01 AM -15.0 °F -34.8 °F -20.0 °F 78% 30.70 in 10.0 mi East 10.4 mph - N/A   Clear
6:01 AM -14.1 °F -38.2 °F -18.0 °F 82% 30.68 in 10.0 mi East 16.1 mph - N/A   Clear
7:01 AM -11.9 °F -35.4 °F -16.1 °F 82% 30.67 in 10.0 mi East 16.1 mph - N/A   Clear
8:01 AM -11.9 °F -36.8 °F -16.1 °F 82% 30.65 in 10.0 mi East 18.4 mph - N/A   Clear
9:01 AM -11.9 °F -37.4 °F -16.1 °F 82% 30.66 in 10.0 mi ENE 19.6 mph - N/A   Clear
10:01 AM -11.9 °F -38.0 °F -16.1 °F 82% 30.63 in 10.0 mi East 20.7 mph - N/A   Clear
11:01 AM -11.0 °F -37.4 °F -16.1 °F 78% 30.63 in 9.0 mi East 21.9 mph - N/A   Clear
12:01 PM -11.9 °F -39.1 °F -16.1 °F 82% 30.62 in 9.0 mi East 23.0 mph - N/A   Clear
1:01 PM -11.0 °F -38.4 °F -16.1 °F 78% 30.62 in 6.0 mi East 24.2 mph - N/A   Haze
2:01 PM -11.0 °F -39.0 °F -15.0 °F 83% 30.60 in 6.0 mi East 25.3 mph - N/A   Clear
3:01 PM -9.9 °F -36.5 °F -15.0 °F 78% 30.58 in 6.0 mi East 23.0 mph - N/A   Haze
4:01 PM -9.9 °F -38.0 °F -14.1 °F 82% 30.58 in 6.0 mi East 26.5 mph - N/A   Clear
5:01 PM -9.0 °F -38.5 °F -14.1 °F 79% 30.54 in 4.0 mi East 31.1 mph - N/A   Haze
6:01 PM -9.9 °F -40.5 °F -14.1 °F 82% 30.54 in 3.0 mi East 33.4 mph - N/A   Clear
7:01 PM -9.0 °F -37.7 °F -14.1 °F 79% 30.56 in 5.0 mi East 28.8 mph - N/A   Haze
8:01 PM -9.0 °F -37.7 °F -13.0 °F 83% 30.56 in 5.0 mi East 28.8 mph - N/A   Clear
9:01 PM -9.0 °F -38.5 °F -13.0 °F 83% 30.56 in 4.0 mi East 31.1 mph - N/A   Clear
10:01 PM -8.0 °F -37.0 °F -11.9 °F 83% 30.54 in 4.0 mi East 31.1 mph - N/A   Clear
11:01 PM -7.1 °F -35.0 °F -11.0 °F 83% 30.55 in 5.0 mi East 28.8 mph - N/A   Clear